(°C)
32°
31°
30°
28°
27°
25°
23°
(°C)
32°
31°
29°
28°
27°
26°
25°
O
O
O
O
O
ONO
N
(km/h)
16-36
16-31
13-29
11-24
11-20
6-15
4-12
(mm)
0
0
1.5
0
0
0
0
(%)
24
24
35
17
11
6
0

Elevación del sol

/ 54.7°
sun-icon
UV 8
06:07
21:09
Gibosa creciente (134°)
17:24
03:24

METAR a Ioánina (LGIO)

Hora Condiciones Temperatura/
Punto de condensación
Viento Visibilidad Tiempo Nubes Presión Cambiar Bruto
31°C / 17°C 260º variable 170º to 360º 6kt - 1013 - LGIO 211250Z AUTO 26006KT 170V360 //// // ////// 31/17 Q1013 RE//
32°C / 17°C 250º variable 210º to 320º 5kt - 1013 - LGIO 211220Z AUTO 25005KT 210V320 //// // ////// 32/17 Q1013 RE//
VFR 32°C / 17°C variable 5kt >10km - Clouds and Visibility OK 1014 - LGIO 211150Z VRB05KT CAVOK 32/17 Q1014
VFR 31°C / 15°C 340º variable 270º to 020º 7kt >10km - Clouds and Visibility OK 1014 - LGIO 211120Z 34007KT 270V020 CAVOK 31/15 Q1014
VFR 32°C / 15°C 290º variable 240º to 330º 7kt >10km - Clouds and Visibility OK 1014 - LGIO 211050Z 29007KT 240V330 CAVOK 32/15 Q1014
VFR 31°C / 17°C 320º variable 270º to 360º 7kt >10km - Clouds and Visibility OK 1014 - LGIO 211020Z 32007KT 270V360 CAVOK 31/17 Q1014
VFR 31°C / 17°C 330º variable 300º to 030º 7kt >10km - Clouds and Visibility OK 1014 - LGIO 210950Z 33007KT 300V030 CAVOK 31/17 Q1014
VFR 30°C / 17°C 40º 2kt >10km - Clouds and Visibility OK 1014 - LGIO 210920Z 04002KT CAVOK 30/17 Q1014
VFR 29°C / 17°C 110º 2kt >10km - Clouds and Visibility OK 1014 - LGIO 210850Z 11002KT CAVOK 29/17 Q1014
VFR 28°C / 17°C 40º 2kt >10km - Clouds and Visibility OK 1014 - LGIO 210820Z 04002KT CAVOK 28/17 Q1014
VFR 26°C / 18°C 310º 1kt >10km - Clouds and Visibility OK 1014 - LGIO 210750Z 31001KT CAVOK 26/18 Q1014
VFR 24°C / 18°C 110º 2kt >10km - Clouds and Visibility OK 1014 - LGIO 210720Z 11002KT CAVOK 24/18 Q1014
VFR 24°C / 18°C 120º variable 050º to 220º 4kt >10km - Clouds and Visibility OK 1014 - LGIO 210650Z 12004KT 050V220 CAVOK 24/18 Q1014
VFR 23°C / 18°C 100º 1kt >10km - Clouds and Visibility OK 1014 - LGIO 210620Z 10001KT CAVOK 23/18 Q1014
22°C / 18°C variable 1kt - 1014 - LGIO 210550Z AUTO VRB01KT //// // ////// 22/18 Q1014 RE//
20°C / 17°C variable 1kt - 1014 - LGIO 210520Z AUTO VRB01KT //// // ////// 20/17 Q1014 RE//
18°C / 16°C variable 1kt - 1013 - LGIO 210450Z AUTO VRB01KT //// // ////// 18/16 Q1013 RE//
17°C / 16°C variable 1kt - 1014 - LGIO 210420Z AUTO VRB01KT //// // ////// 17/16 Q1014 RE//
16°C / 15°C variable 1kt - 1013 - LGIO 210350Z AUTO VRB01KT //// // ////// 16/15 Q1013 RE//
17°C / 16°C variable 2kt - 1013 - LGIO 210320Z AUTO VRB02KT //// // ////// 17/16 Q1013 RE//
16°C / 15°C variable 1kt - 1013 - LGIO 210250Z AUTO VRB01KT //// // ////// 16/15 Q1013 RE//
18°C / 15°C variable 2kt - 1013 - LGIO 210220Z AUTO VRB02KT //// // ////// 18/15 Q1013 RE//
17°C / 16°C variable 2kt - 1014 - LGIO 210150Z AUTO VRB02KT //// // ////// 17/16 Q1014 RE//
17°C / 15°C variable 1kt - 1013 - LGIO 210120Z AUTO VRB01KT //// // ////// 17/15 Q1013 RE//

31°C / 17°C

[Más]
Viento 260º variable 170º to 360º 6kt
Visibilidad
Tiempo -
Nubes
Presión 1013
Cambiar -
Bruto LGIO 211250Z AUTO 26006KT 170V360 //// // ////// 31/17 Q1013 RE//

32°C / 17°C

[Más]
Viento 250º variable 210º to 320º 5kt
Visibilidad
Tiempo -
Nubes
Presión 1013
Cambiar -
Bruto LGIO 211220Z AUTO 25005KT 210V320 //// // ////// 32/17 Q1013 RE//

VFR

32°C / 17°C

[Más]
Viento variable 5kt
Visibilidad >10km
Tiempo -
Nubes Clouds and Visibility OK
Presión 1014
Cambiar -
Bruto LGIO 211150Z VRB05KT CAVOK 32/17 Q1014

VFR

31°C / 15°C

[Más]
Viento 340º variable 270º to 020º 7kt
Visibilidad >10km
Tiempo -
Nubes Clouds and Visibility OK
Presión 1014
Cambiar -
Bruto LGIO 211120Z 34007KT 270V020 CAVOK 31/15 Q1014

VFR

32°C / 15°C

[Más]
Viento 290º variable 240º to 330º 7kt
Visibilidad >10km
Tiempo -
Nubes Clouds and Visibility OK
Presión 1014
Cambiar -
Bruto LGIO 211050Z 29007KT 240V330 CAVOK 32/15 Q1014

VFR

31°C / 17°C

[Más]
Viento 320º variable 270º to 360º 7kt
Visibilidad >10km
Tiempo -
Nubes Clouds and Visibility OK
Presión 1014
Cambiar -
Bruto LGIO 211020Z 32007KT 270V360 CAVOK 31/17 Q1014

VFR

31°C / 17°C

[Más]
Viento 330º variable 300º to 030º 7kt
Visibilidad >10km
Tiempo -
Nubes Clouds and Visibility OK
Presión 1014
Cambiar -
Bruto LGIO 210950Z 33007KT 300V030 CAVOK 31/17 Q1014

VFR

30°C / 17°C

[Más]
Viento 40º 2kt
Visibilidad >10km
Tiempo -
Nubes Clouds and Visibility OK
Presión 1014
Cambiar -
Bruto LGIO 210920Z 04002KT CAVOK 30/17 Q1014

VFR

29°C / 17°C

[Más]
Viento 110º 2kt
Visibilidad >10km
Tiempo -
Nubes Clouds and Visibility OK
Presión 1014
Cambiar -
Bruto LGIO 210850Z 11002KT CAVOK 29/17 Q1014

VFR

28°C / 17°C

[Más]
Viento 40º 2kt
Visibilidad >10km
Tiempo -
Nubes Clouds and Visibility OK
Presión 1014
Cambiar -
Bruto LGIO 210820Z 04002KT CAVOK 28/17 Q1014

VFR

26°C / 18°C

[Más]
Viento 310º 1kt
Visibilidad >10km
Tiempo -
Nubes Clouds and Visibility OK
Presión 1014
Cambiar -
Bruto LGIO 210750Z 31001KT CAVOK 26/18 Q1014

VFR

24°C / 18°C

[Más]
Viento 110º 2kt
Visibilidad >10km
Tiempo -
Nubes Clouds and Visibility OK
Presión 1014
Cambiar -
Bruto LGIO 210720Z 11002KT CAVOK 24/18 Q1014

VFR

24°C / 18°C

[Más]
Viento 120º variable 050º to 220º 4kt
Visibilidad >10km
Tiempo -
Nubes Clouds and Visibility OK
Presión 1014
Cambiar -
Bruto LGIO 210650Z 12004KT 050V220 CAVOK 24/18 Q1014

VFR

23°C / 18°C

[Más]
Viento 100º 1kt
Visibilidad >10km
Tiempo -
Nubes Clouds and Visibility OK
Presión 1014
Cambiar -
Bruto LGIO 210620Z 10001KT CAVOK 23/18 Q1014

22°C / 18°C

[Más]
Viento variable 1kt
Visibilidad
Tiempo -
Nubes
Presión 1014
Cambiar -
Bruto LGIO 210550Z AUTO VRB01KT //// // ////// 22/18 Q1014 RE//

20°C / 17°C

[Más]
Viento variable 1kt
Visibilidad
Tiempo -
Nubes
Presión 1014
Cambiar -
Bruto LGIO 210520Z AUTO VRB01KT //// // ////// 20/17 Q1014 RE//

18°C / 16°C

[Más]
Viento variable 1kt
Visibilidad
Tiempo -
Nubes
Presión 1013
Cambiar -
Bruto LGIO 210450Z AUTO VRB01KT //// // ////// 18/16 Q1013 RE//

17°C / 16°C

[Más]
Viento variable 1kt
Visibilidad
Tiempo -
Nubes
Presión 1014
Cambiar -
Bruto LGIO 210420Z AUTO VRB01KT //// // ////// 17/16 Q1014 RE//

16°C / 15°C

[Más]
Viento variable 1kt
Visibilidad
Tiempo -
Nubes
Presión 1013
Cambiar -
Bruto LGIO 210350Z AUTO VRB01KT //// // ////// 16/15 Q1013 RE//

17°C / 16°C

[Más]
Viento variable 2kt
Visibilidad
Tiempo -
Nubes
Presión 1013
Cambiar -
Bruto LGIO 210320Z AUTO VRB02KT //// // ////// 17/16 Q1013 RE//

16°C / 15°C

[Más]
Viento variable 1kt
Visibilidad
Tiempo -
Nubes
Presión 1013
Cambiar -
Bruto LGIO 210250Z AUTO VRB01KT //// // ////// 16/15 Q1013 RE//

18°C / 15°C

[Más]
Viento variable 2kt
Visibilidad
Tiempo -
Nubes
Presión 1013
Cambiar -
Bruto LGIO 210220Z AUTO VRB02KT //// // ////// 18/15 Q1013 RE//

17°C / 16°C

[Más]
Viento variable 2kt
Visibilidad
Tiempo -
Nubes
Presión 1014
Cambiar -
Bruto LGIO 210150Z AUTO VRB02KT //// // ////// 17/16 Q1014 RE//

17°C / 15°C

[Más]
Viento variable 1kt
Visibilidad
Tiempo -
Nubes
Presión 1013
Cambiar -
Bruto LGIO 210120Z AUTO VRB01KT //// // ////// 17/15 Q1013 RE//

TAF a Ioánina (LGIO)

From till


From till Wind variable 3kt. Visibility 10km or more. Few Clouds 2500ft. Scattered Clouds 8000ft.
With 30% probability, Temporarly from till Visibility 3000m. Thunderstorm Rain . Few Clouds 1500ft. Broken Clouds 3000ft. Broken Clouds 8000ft.
Becoming from till Wind variable 3kt. Visibility 10km or more. Few Clouds 3000ft.

Bruto: TAF LGIO 211100Z 2112/2121 VRB03KT 9999 FEW025 SCT080 PROB30 TEMPO 2112/2118 3000 TSRA FEW015CB BKN030 BKN080 BECMG 2118/2120 FEW030

Imágenes actuales de satélite y lluvia para Ioánina, Grecia

El marcador de lugar se coloca en Ioánina. [Más]

La imagen de satélite en tiempo real se aprovecha de la combinación de bandas de la luz visible y de la luz infrarrojo. Como se puede detectar cambios de temperaturas atreves de la banda infrarrojo, la imagen no está escura de noche. No obstante, la niebla y las nubes bajas son apenas visibles en las imágenes infrarrojo como las diferencias de temperaturas entre el suelo y la niebla son muy pequeñas. Por eso son casi invisibles durante la noche. Las imágenes de satélite del Meteosat (Europa) son actualizados en tiempo real cada 5 minutos. Las imágenes del GOES-16/GOES-17 (América del Norte y América del Sur) y Himawari (Asia) son actualizados cada 10 minutos.

La precipitación se estima a partir de radares y satélites. Estimaciones de precipitación de la noche de los satélites son menos precisas que durante el día. Cruces naranjas identifican lugares donde relámpagos fueron detectados (en Europa).

Copyright 2021 EUMETSAT / meteoblue. Datos de relámpagos proporcionados por nowcast.

Radar y precipitación nowcast para Ioánina

El marcador de lugar se coloca en Ioánina. Esta animación muestra lo radar de precipitaciones hasta la última hora, así como la 1h previsión. Llovizna o ligera caída de nieve pueden ser invisibles para el radar. Intensidad de la precipitación se codifica en colores, que van desde azul a púrpura oscura.

Situación meteorológica actual y advertencias

EUMETNET – MeteoAlarm

pictomap

Fuente : HNMS

Los retrasos de tiempo entre este sitio web y www.meteoalarm.eu son ​​posibles. Para obtener la información más actualizada sobre los niveles de alerta según lo publicado por los Servicios Meteorológicos Nacionales participantes, por favor, utilice www.meteoalarm.eu.